Location: Nelson
(41.2830°S, 173.2830°E)
Time: 12:51:03
(UTC+13:00)

Radarsat Rocket - Pass Details

Date: 04 October 2021
Orbit: 933 x 1492 km, 100.6° (Epoch: 27 October)

Event Time Altitude Azimuth Distance (km) Brightness Sun altitude
Rises 22:16:59 0° 178° (S) 4,181 7.8 -28.8°
Reaches altitude 10° 22:21:28 10° 203° (SSW) 3,080 7.3 -29.4°
Maximum altitude 22:24:17 13° 227° (SW) 2,782 7.2 -29.8°
Drops below altitude 10° 22:26:59 10° 252° (WSW) 2,919 7.3 -30.2°
Sets 22:31:01 0° 278° (W) 3,764 7.6 -30.8°
